iso_date,epoch_date,Year,Hour,Min,DOY,POS_DOY,Lat,Lon,BP,Ts,Ta,has_bp,has_ts,has_ta,BuoyID,Buoy_Type,Buoy_Owner,Logistics,Hemisphere
2020-11-12T09:08:03Z,1605172084,2020,9,8,317.3806,317.3806,72.114,-159.562,1002.0,0.02,-999.0,yes,yes,no,300534060610380,SVP-B,AOML/USIABP,NABOS,North
2020-11-12T10:00:02Z,1605175203,2020,10,0,317.4167,317.4167,72.117,-159.576,1002.5,0.02,-999.0,yes,yes,no,300534060610380,SVP-B,AOML/USIABP,NABOS,North
2020-11-12T10:59:57Z,1605178797,2020,11,0,317.4583,317.4583,72.121,-159.593,1002.9,0.02,-999.0,yes,yes,no,300534060610380,SVP-B,AOML/USIABP,NABOS,North
2020-11-12T12:00:00Z,1605182400,2020,12,0,317.5,317.5,72.126,-159.604,1002.3,0.03,-999.0,yes,yes,no,300534060610380,SVP-B,AOML/USIABP,NABOS,North
2020-11-12T13:00:02Z,1605186003,2020,13,0,317.5417,317.5417,72.13,-159.612,1003.4,0.0,-999.0,yes,yes,no,300534060610380,SVP-B,AOML/USIABP,NABOS,North
2020-11-12T13:59:57Z,1605189597,2020,14,0,317.5833,317.5833,72.134,-159.616,1001.1,-0.02,-999.0,yes,yes,no,300534060610380,SVP-B,AOML/USIABP,NABOS,North
2020-11-12T15:00:00Z,1605193200,2020,15,0,317.625,317.625,72.138,-159.617,999.8,-0.05,-999.0,yes,yes,no,300534060610380,SVP-B,AOML/USIABP,NABOS,North
2020-11-12T16:00:02Z,1605196803,2020,16,0,317.6667,317.6667,72.14,-159.615,1000.0,-0.08,-999.0,yes,yes,no,300534060610380,SVP-B,AOML/USIABP,NABOS,North
2020-11-12T16:59:57Z,1605200397,2020,17,0,317.7083,317.7083,72.14,-159.615,1001.0,-0.09,-999.0,yes,yes,no,300534060610380,SVP-B,AOML/USIABP,NABOS,North
2020-11-12T18:00:00Z,1605204000,2020,18,0,317.75,317.75,72.142,-159.612,1004.7,-0.09,-999.0,yes,yes,no,300534060610380,SVP-B,AOML/USIABP,NABOS,North
2020-11-12T19:00:02Z,1605207603,2020,19,0,317.7917,317.7917,72.143,-159.614,1003.7,-0.1,-999.0,yes,yes,no,300534060610380,SVP-B,AOML/USIABP,NABOS,North
2020-11-12T19:59:57Z,1605211197,2020,20,0,317.8333,317.8333,72.144,-159.618,1001.5,-0.11,-999.0,yes,yes,no,300534060610380,SVP-B,AOML/USIABP,NABOS,North
2020-11-12T21:00:00Z,1605214800,2020,21,0,317.875,317.875,72.146,-159.621,1000.3,-0.11,-999.0,yes,yes,no,300534060610380,SVP-B,AOML/USIABP,NABOS,North
2020-11-12T22:00:02Z,1605218403,2020,22,0,317.9167,317.9167,72.149,-159.623,999.3,-0.15,-999.0,yes,yes,no,300534060610380,SVP-B,AOML/USIABP,NABOS,North
2020-11-12T22:59:57Z,1605221997,2020,23,0,317.9583,317.9583,72.152,-159.622,998.1,-0.17,-999.0,yes,yes,no,300534060610380,SVP-B,AOML/USIABP,NABOS,North
2020-11-13T00:00:00Z,1605225600,2020,0,0,318.0,318.0,72.155,-159.619,997.6,-0.16,-999.0,yes,yes,no,300534060610380,SVP-B,AOML/USIABP,NABOS,North
2020-11-13T01:00:02Z,1605229203,2020,1,0,318.0417,318.0417,72.158,-159.614,997.4,-0.18,-999.0,yes,yes,no,300534060610380,SVP-B,AOML/USIABP,NABOS,North
2020-11-13T01:59:57Z,1605232797,2020,2,0,318.0833,318.0833,72.161,-159.606,996.8,-0.2,-999.0,yes,yes,no,300534060610380,SVP-B,AOML/USIABP,NABOS,North
2020-11-13T03:00:00Z,1605236400,2020,3,0,318.125,318.125,72.159,-159.606,992.8,-0.49,-999.0,yes,yes,no,300534060610380,SVP-B,AOML/USIABP,NABOS,North
2020-11-13T04:00:02Z,1605240003,2020,4,0,318.1667,318.1667,72.154,-159.611,993.2,-3.14,-999.0,yes,yes,no,300534060610380,SVP-B,AOML/USIABP,NABOS,North
2020-11-13T04:59:57Z,1605243597,2020,5,0,318.2083,318.2083,72.148,-159.615,1006.6,-0.49,-999.0,yes,yes,no,300534060610380,SVP-B,AOML/USIABP,NABOS,North
2020-11-13T06:00:00Z,1605247200,2020,6,0,318.25,318.25,72.145,-159.613,1006.4,-0.24,-999.0,yes,yes,no,300534060610380,SVP-B,AOML/USIABP,NABOS,North
2020-11-13T07:00:02Z,1605250803,2020,7,0,318.2917,318.2917,72.145,-159.609,1006.6,-0.26,-999.0,yes,yes,no,300534060610380,SVP-B,AOML/USIABP,NABOS,North
2020-11-13T07:59:57Z,1605254397,2020,8,0,318.3333,318.3333,72.145,-159.607,1006.6,-0.27,-999.0,yes,yes,no,300534060610380,SVP-B,AOML/USIABP,NABOS,North
2020-11-13T09:00:00Z,1605258000,2020,9,0,318.375,318.375,72.146,-159.607,1006.6,-0.28,-999.0,yes,yes,no,300534060610380,SVP-B,AOML/USIABP,NABOS,North
2020-11-13T10:00:02Z,1605261603,2020,10,0,318.4167,318.4167,72.147,-159.607,1006.2,-0.38,-999.0,yes,yes,no,300534060610380,SVP-B,AOML/USIABP,NABOS,North
2020-11-13T10:59:57Z,1605265197,2020,11,0,318.4583,318.4583,72.149,-159.605,1006.1,-0.36,-999.0,yes,yes,no,300534060610380,SVP-B,AOML/USIABP,NABOS,North
2020-11-13T12:00:00Z,1605268800,2020,12,0,318.5,318.5,72.152,-159.6,1006.1,-0.35,-999.0,yes,yes,no,300534060610380,SVP-B,AOML/USIABP,NABOS,North
2020-11-13T13:00:02Z,1605272403,2020,13,0,318.5417,318.5417,72.155,-159.593,1006.1,-0.33,-999.0,yes,yes,no,300534060610380,SVP-B,AOML/USIABP,NABOS,North
2020-11-13T13:59:57Z,1605275997,2020,14,0,318.5833,318.5833,72.157,-159.585,1006.0,-0.42,-999.0,yes,yes,no,300534060610380,SVP-B,AOML/USIABP,NABOS,North
2020-11-13T15:00:00Z,1605279600,2020,15,0,318.625,318.625,72.156,-159.576,1005.8,-0.55,-999.0,yes,yes,no,300534060610380,SVP-B,AOML/USIABP,NABOS,North
2020-11-13T16:00:02Z,1605283203,2020,16,0,318.6667,318.6667,72.154,-159.564,1005.5,-0.5,-999.0,yes,yes,no,300534060610380,SVP-B,AOML/USIABP,NABOS,North
2020-11-13T16:59:57Z,1605286797,2020,17,0,318.7083,318.7083,72.148,-159.554,1005.5,-0.46,-999.0,yes,yes,no,300534060610380,SVP-B,AOML/USIABP,NABOS,North
2020-11-13T18:00:00Z,1605290400,2020,18,0,318.75,318.75,72.141,-159.542,1005.6,-0.51,-999.0,yes,yes,no,300534060610380,SVP-B,AOML/USIABP,NABOS,North
2020-11-13T19:00:02Z,1605294003,2020,19,0,318.7917,318.7917,72.133,-159.531,1005.6,-0.71,-999.0,yes,yes,no,300534060610380,SVP-B,AOML/USIABP,NABOS,North
2020-11-13T19:59:57Z,1605297597,2020,20,0,318.8333,318.8333,72.125,-159.524,1005.8,-0.85,-999.0,yes,yes,no,300534060610380,SVP-B,AOML/USIABP,NABOS,North
2020-11-13T21:00:00Z,1605301200,2020,21,0,318.875,318.875,72.117,-159.519,1005.8,-1.02,-999.0,yes,yes,no,300534060610380,SVP-B,AOML/USIABP,NABOS,North
2020-11-13T22:00:02Z,1605304803,2020,22,0,318.9167,318.9167,72.108,-159.51,1006.0,-1.09,-999.0,yes,yes,no,300534060610380,SVP-B,AOML/USIABP,NABOS,North
2020-11-13T22:59:57Z,1605308397,2020,23,0,318.9583,318.9583,72.098,-159.504,1005.9,-1.11,-999.0,yes,yes,no,300534060610380,SVP-B,AOML/USIABP,NABOS,North
2020-11-14T00:00:00Z,1605312000,2020,0,0,319.0,319.0,72.088,-159.497,1005.7,-1.09,-999.0,yes,yes,no,300534060610380,SVP-B,AOML/USIABP,NABOS,North
2020-11-14T01:00:02Z,1605315603,2020,1,0,319.0417,319.0417,72.077,-159.487,1005.6,-1.51,-999.0,yes,yes,no,300534060610380,SVP-B,AOML/USIABP,NABOS,North
2020-11-14T01:59:57Z,1605319197,2020,2,0,319.0833,319.0833,72.068,-159.474,1005.4,-1.06,-999.0,yes,yes,no,300534060610380,SVP-B,AOML/USIABP,NABOS,North
2020-11-14T03:00:00Z,1605322800,2020,3,0,319.125,319.125,72.063,-159.465,1005.9,-0.75,-999.0,yes,yes,no,300534060610380,SVP-B,AOML/USIABP,NABOS,North
2020-11-14T04:00:02Z,1605326403,2020,4,0,319.1667,319.1667,72.051,-159.446,1005.9,-0.52,-999.0,yes,yes,no,300534060610380,SVP-B,AOML/USIABP,NABOS,North
2020-11-14T04:59:57Z,1605329997,2020,5,0,319.2083,319.2083,72.041,-159.42,1005.9,-0.82,-999.0,yes,yes,no,300534060610380,SVP-B,AOML/USIABP,NABOS,North
2020-11-14T06:00:00Z,1605333600,2020,6,0,319.25,319.25,72.029,-159.4,1006.1,-1.13,-999.0,yes,yes,no,300534060610380,SVP-B,AOML/USIABP,NABOS,North
2020-11-14T07:00:02Z,1605337203,2020,7,0,319.2917,319.2917,72.017,-159.387,1006.3,-1.99,-999.0,yes,yes,no,300534060610380,SVP-B,AOML/USIABP,NABOS,North
2020-11-14T07:59:57Z,1605340797,2020,8,0,319.3333,319.3333,72.007,-159.371,1006.8,-1.58,-999.0,yes,yes,no,300534060610380,SVP-B,AOML/USIABP,NABOS,North
2020-11-14T09:00:00Z,1605344400,2020,9,0,319.375,319.375,71.996,-159.361,1007.0,-1.58,-999.0,yes,yes,no,300534060610380,SVP-B,AOML/USIABP,NABOS,North
2020-11-14T10:00:02Z,1605348003,2020,10,0,319.4167,319.4167,71.988,-159.355,1007.0,-1.12,-999.0,yes,yes,no,300534060610380,SVP-B,AOML/USIABP,NABOS,North
2020-11-14T10:59:57Z,1605351597,2020,11,0,319.4583,319.4583,71.984,-159.362,1007.6,-1.11,-999.0,yes,yes,no,300534060610380,SVP-B,AOML/USIABP,NABOS,North
2020-11-14T12:00:00Z,1605355200,2020,12,0,319.5,319.5,71.982,-159.37,1007.7,-1.13,-999.0,yes,yes,no,300534060610380,SVP-B,AOML/USIABP,NABOS,North
2020-11-14T13:00:02Z,1605358803,2020,13,0,319.5417,319.5417,71.973,-159.369,1007.9,-1.43,-999.0,yes,yes,no,300534060610380,SVP-B,AOML/USIABP,NABOS,North
2020-11-14T13:59:57Z,1605362397,2020,14,0,319.5833,319.5833,71.964,-159.366,1008.1,-1.37,-999.0,yes,yes,no,300534060610380,SVP-B,AOML/USIABP,NABOS,North
2020-11-14T15:00:00Z,1605366000,2020,15,0,319.625,319.625,71.955,-159.362,1008.4,-1.57,-999.0,yes,yes,no,300534060610380,SVP-B,AOML/USIABP,NABOS,North
2020-11-14T16:00:02Z,1605369603,2020,16,0,319.6667,319.6667,71.946,-159.356,1008.7,-1.5,-999.0,yes,yes,no,300534060610380,SVP-B,AOML/USIABP,NABOS,North
2020-11-14T16:59:57Z,1605373197,2020,17,0,319.7083,319.7083,71.936,-159.346,1009.1,-1.58,-999.0,yes,yes,no,300534060610380,SVP-B,AOML/USIABP,NABOS,North
2020-11-14T18:00:00Z,1605376800,2020,18,0,319.75,319.75,71.925,-159.333,1009.5,-1.84,-999.0,yes,yes,no,300534060610380,SVP-B,AOML/USIABP,NABOS,North
2020-11-14T19:00:02Z,1605380403,2020,19,0,319.7917,319.7917,71.914,-159.315,1009.9,-1.59,-999.0,yes,yes,no,300534060610380,SVP-B,AOML/USIABP,NABOS,North
2020-11-14T19:59:57Z,1605383997,2020,20,0,319.8333,319.8333,71.903,-159.295,1010.3,-1.61,-999.0,yes,yes,no,300534060610380,SVP-B,AOML/USIABP,NABOS,North
2020-11-14T21:00:00Z,1605387600,2020,21,0,319.875,319.875,71.892,-159.276,1010.8,-1.67,-999.0,yes,yes,no,300534060610380,SVP-B,AOML/USIABP,NABOS,North
2020-11-14T22:00:02Z,1605391203,2020,22,0,319.9167,319.9167,71.881,-159.26,1011.5,-1.62,-999.0,yes,yes,no,300534060610380,SVP-B,AOML/USIABP,NABOS,North
2020-11-14T22:59:57Z,1605394797,2020,23,0,319.9583,319.9583,71.871,-159.243,1011.9,-1.76,-999.0,yes,yes,no,300534060610380,SVP-B,AOML/USIABP,NABOS,North
2020-11-15T00:00:00Z,1605398400,2020,0,0,320.0,320.0,71.861,-159.226,1012.4,-1.42,-999.0,yes,yes,no,300534060610380,SVP-B,AOML/USIABP,NABOS,North
2020-11-15T01:00:02Z,1605402003,2020,1,0,320.0417,320.0417,71.853,-159.206,1012.8,-1.11,-999.0,yes,yes,no,300534060610380,SVP-B,AOML/USIABP,NABOS,North
2020-11-15T01:59:57Z,1605405597,2020,2,0,320.0833,320.0833,71.846,-159.189,1013.4,-1.18,-999.0,yes,yes,no,300534060610380,SVP-B,AOML/USIABP,NABOS,North
2020-11-15T03:00:00Z,1605409200,2020,3,0,320.125,320.125,71.839,-159.17,1013.7,-1.46,-999.0,yes,yes,no,300534060610380,SVP-B,AOML/USIABP,NABOS,North
2020-11-15T04:00:02Z,1605412803,2020,4,0,320.1667,320.1667,71.833,-159.149,1011.7,-1.61,-999.0,yes,yes,no,300534060610380,SVP-B,AOML/USIABP,NABOS,North
2020-11-15T04:59:57Z,1605416397,2020,5,0,320.2083,320.2083,71.826,-159.135,1014.4,-1.53,-999.0,yes,yes,no,300534060610380,SVP-B,AOML/USIABP,NABOS,North
2020-11-15T06:00:00Z,1605420000,2020,6,0,320.25,320.25,71.82,-159.123,1014.7,-1.33,-999.0,yes,yes,no,300534060610380,SVP-B,AOML/USIABP,NABOS,North
2020-11-15T07:00:02Z,1605423603,2020,7,0,320.2917,320.2917,71.813,-159.109,1012.9,-1.15,-999.0,yes,yes,no,300534060610380,SVP-B,AOML/USIABP,NABOS,North
2020-11-15T07:59:57Z,1605427197,2020,8,0,320.3333,320.3333,71.807,-159.094,1015.7,-1.22,-999.0,yes,yes,no,300534060610380,SVP-B,AOML/USIABP,NABOS,North
2020-11-15T09:00:00Z,1605430800,2020,9,0,320.375,320.375,71.801,-159.075,1016.2,-1.04,-999.0,yes,yes,no,300534060610380,SVP-B,AOML/USIABP,NABOS,North
2020-11-15T10:00:02Z,1605434403,2020,10,0,320.4167,320.4167,71.793,-159.051,1015.8,-1.6,-999.0,yes,yes,no,300534060610380,SVP-B,AOML/USIABP,NABOS,North
2020-11-15T10:59:57Z,1605437997,2020,11,0,320.4583,320.4583,71.786,-159.047,1015.7,-1.39,-999.0,yes,yes,no,300534060610380,SVP-B,AOML/USIABP,NABOS,North
2020-11-15T12:00:00Z,1605441600,2020,12,0,320.5,320.5,71.781,-159.05,1017.4,-1.29,-999.0,yes,yes,no,300534060610380,SVP-B,AOML/USIABP,NABOS,North
2020-11-15T13:00:02Z,1605445203,2020,13,0,320.5417,320.5417,71.777,-159.053,1017.7,-1.26,-999.0,yes,yes,no,300534060610380,SVP-B,AOML/USIABP,NABOS,North
2020-11-15T13:59:57Z,1605448797,2020,14,0,320.5833,320.5833,71.772,-159.059,1018.0,-1.26,-999.0,yes,yes,no,300534060610380,SVP-B,AOML/USIABP,NABOS,North
2020-11-15T15:00:00Z,1605452400,2020,15,0,320.625,320.625,71.767,-159.064,1017.9,-1.26,-999.0,yes,yes,no,300534060610380,SVP-B,AOML/USIABP,NABOS,North
2020-11-15T16:00:02Z,1605456003,2020,16,0,320.6667,320.6667,71.762,-159.069,1017.5,-1.24,-999.0,yes,yes,no,300534060610380,SVP-B,AOML/USIABP,NABOS,North
2020-11-15T16:59:57Z,1605459597,2020,17,0,320.7083,320.7083,71.758,-159.073,1017.0,-1.22,-999.0,yes,yes,no,300534060610380,SVP-B,AOML/USIABP,NABOS,North
2020-11-15T18:00:00Z,1605463200,2020,18,0,320.75,320.75,71.755,-159.078,1017.7,-1.21,-999.0,yes,yes,no,300534060610380,SVP-B,AOML/USIABP,NABOS,North
2020-11-15T19:00:02Z,1605466803,2020,19,0,320.7917,320.7917,71.752,-159.082,1018.2,-1.19,-999.0,yes,yes,no,300534060610380,SVP-B,AOML/USIABP,NABOS,North
2020-11-15T19:59:57Z,1605470397,2020,20,0,320.8333,320.8333,71.75,-159.084,1017.3,-1.18,-999.0,yes,yes,no,300534060610380,SVP-B,AOML/USIABP,NABOS,North
2020-11-15T21:00:00Z,1605474000,2020,21,0,320.875,320.875,71.748,-159.084,1018.3,-1.2,-999.0,yes,yes,no,300534060610380,SVP-B,AOML/USIABP,NABOS,North
2020-11-15T22:00:02Z,1605477603,2020,22,0,320.9167,320.9167,71.747,-159.081,1016.9,-1.2,-999.0,yes,yes,no,300534060610380,SVP-B,AOML/USIABP,NABOS,North
2020-11-15T22:59:57Z,1605481197,2020,23,0,320.9583,320.9583,71.746,-159.076,1018.1,-1.19,-999.0,yes,yes,no,300534060610380,SVP-B,AOML/USIABP,NABOS,North
2020-11-16T00:00:00Z,1605484800,2020,0,0,321.0,321.0,71.744,-159.065,1016.9,-1.14,-999.0,yes,yes,no,300534060610380,SVP-B,AOML/USIABP,NABOS,North
2020-11-16T01:00:02Z,1605488403,2020,1,0,321.0417,321.0417,71.741,-159.054,1016.6,-1.15,-999.0,yes,yes,no,300534060610380,SVP-B,AOML/USIABP,NABOS,North
2020-11-16T01:59:57Z,1605491997,2020,2,0,321.0833,321.0833,71.739,-159.038,1015.6,-1.15,-999.0,yes,yes,no,300534060610380,SVP-B,AOML/USIABP,NABOS,North
2020-11-16T03:00:00Z,1605495600,2020,3,0,321.125,321.125,71.735,-159.023,1014.6,-1.03,-999.0,yes,yes,no,300534060610380,SVP-B,AOML/USIABP,NABOS,North
2020-11-16T04:00:02Z,1605499203,2020,4,0,321.1667,321.1667,71.732,-159.007,1014.2,-1.05,-999.0,yes,yes,no,300534060610380,SVP-B,AOML/USIABP,NABOS,North
2020-11-16T04:59:57Z,1605502797,2020,5,0,321.2083,321.2083,71.729,-158.989,1013.0,-1.21,-999.0,yes,yes,no,300534060610380,SVP-B,AOML/USIABP,NABOS,North
2020-11-16T06:00:00Z,1605506400,2020,6,0,321.25,321.25,71.726,-158.972,1011.9,-1.19,-999.0,yes,yes,no,300534060610380,SVP-B,AOML/USIABP,NABOS,North
2020-11-16T07:00:02Z,1605510003,2020,7,0,321.2917,321.2917,71.723,-158.952,1010.9,-1.24,-999.0,yes,yes,no,300534060610380,SVP-B,AOML/USIABP,NABOS,North
2020-11-16T07:59:57Z,1605513597,2020,8,0,321.3333,321.3333,71.721,-158.931,1009.4,-1.31,-999.0,yes,yes,no,300534060610380,SVP-B,AOML/USIABP,NABOS,North
2020-11-16T09:00:00Z,1605517200,2020,9,0,321.375,321.375,71.719,-158.914,1008.2,-1.28,-999.0,yes,yes,no,300534060610380,SVP-B,AOML/USIABP,NABOS,North
2020-11-16T10:00:02Z,1605520803,2020,10,0,321.4167,321.4167,71.716,-158.894,1006.3,-1.26,-999.0,yes,yes,no,300534060610380,SVP-B,AOML/USIABP,NABOS,North
2020-11-16T10:59:57Z,1605524397,2020,11,0,321.4583,321.4583,71.715,-158.874,1004.4,-1.27,-999.0,yes,yes,no,300534060610380,SVP-B,AOML/USIABP,NABOS,North
2020-11-16T12:00:00Z,1605528000,2020,12,0,321.5,321.5,71.713,-158.854,1003.1,-1.26,-999.0,yes,yes,no,300534060610380,SVP-B,AOML/USIABP,NABOS,North
2020-11-16T13:00:02Z,1605531603,2020,13,0,321.5417,321.5417,71.712,-158.83,1002.4,-1.26,-999.0,yes,yes,no,300534060610380,SVP-B,AOML/USIABP,NABOS,North
2020-11-16T13:59:57Z,1605535197,2020,14,0,321.5833,321.5833,71.71,-158.808,1002.4,-1.25,-999.0,yes,yes,no,300534060610380,SVP-B,AOML/USIABP,NABOS,North
2020-11-16T15:00:00Z,1605538800,2020,15,0,321.625,321.625,71.707,-158.787,1002.5,-1.14,-999.0,yes,yes,no,300534060610380,SVP-B,AOML/USIABP,NABOS,North
2020-11-16T16:00:02Z,1605542403,2020,16,0,321.6667,321.6667,71.704,-158.768,1002.7,-1.09,-999.0,yes,yes,no,300534060610380,SVP-B,AOML/USIABP,NABOS,North
2020-11-16T16:59:57Z,1605545997,2020,17,0,321.7083,321.7083,71.699,-158.751,1003.1,-1.08,-999.0,yes,yes,no,300534060610380,SVP-B,AOML/USIABP,NABOS,North
2020-11-16T18:00:00Z,1605549600,2020,18,0,321.75,321.75,71.696,-158.737,1003.4,-1.09,-999.0,yes,yes,no,300534060610380,SVP-B,AOML/USIABP,NABOS,North
2020-11-16T19:00:02Z,1605553203,2020,19,0,321.7917,321.7917,71.692,-158.724,1004.0,-1.12,-999.0,yes,yes,no,300534060610380,SVP-B,AOML/USIABP,NABOS,North
2020-11-16T19:59:57Z,1605556797,2020,20,0,321.8333,321.8333,71.689,-158.714,1005.0,-1.12,-999.0,yes,yes,no,300534060610380,SVP-B,AOML/USIABP,NABOS,North
2020-11-16T21:00:00Z,1605560400,2020,21,0,321.875,321.875,71.687,-158.701,1005.8,-1.12,-999.0,yes,yes,no,300534060610380,SVP-B,AOML/USIABP,NABOS,North
2020-11-16T22:00:02Z,1605564003,2020,22,0,321.9167,321.9167,71.685,-158.688,1006.8,-1.12,-999.0,yes,yes,no,300534060610380,SVP-B,AOML/USIABP,NABOS,North
2020-11-16T22:59:57Z,1605567597,2020,23,0,321.9583,321.9583,71.683,-158.673,1007.6,-1.12,-999.0,yes,yes,no,300534060610380,SVP-B,AOML/USIABP,NABOS,North
2020-11-17T00:00:00Z,1605571200,2020,0,0,322.0,322.0,71.683,-158.653,1008.4,-1.13,-999.0,yes,yes,no,300534060610380,SVP-B,AOML/USIABP,NABOS,North
2020-11-17T01:00:02Z,1605574803,2020,1,0,322.0417,322.0417,71.682,-158.633,1009.1,-1.12,-999.0,yes,yes,no,300534060610380,SVP-B,AOML/USIABP,NABOS,North
2020-11-17T01:59:57Z,1605578397,2020,2,0,322.0833,322.0833,71.682,-158.633,1010.0,-1.11,-999.0,yes,yes,no,300534060610380,SVP-B,AOML/USIABP,NABOS,North
2020-11-17T03:00:00Z,1605582000,2020,3,0,322.125,322.125,71.68,-158.592,1010.9,-1.11,-999.0,yes,yes,no,300534060610380,SVP-B,AOML/USIABP,NABOS,North
2020-11-17T04:00:02Z,1605585603,2020,4,0,322.1667,322.1667,71.678,-158.574,1011.4,-1.09,-999.0,yes,yes,no,300534060610380,SVP-B,AOML/USIABP,NABOS,North
2020-11-17T04:59:57Z,1605589197,2020,5,0,322.2083,322.2083,71.677,-158.557,1012.0,-1.09,-999.0,yes,yes,no,300534060610380,SVP-B,AOML/USIABP,NABOS,North
2020-11-17T06:00:00Z,1605592800,2020,6,0,322.25,322.25,71.675,-158.544,1013.2,-1.11,-999.0,yes,yes,no,300534060610380,SVP-B,AOML/USIABP,NABOS,North
2020-11-17T07:00:02Z,1605596403,2020,7,0,322.2917,322.2917,71.674,-158.533,1013.3,-1.12,-999.0,yes,yes,no,300534060610380,SVP-B,AOML/USIABP,NABOS,North
2020-11-17T07:59:57Z,1605599997,2020,8,0,322.3333,322.3333,71.672,-158.525,1013.9,-1.09,-999.0,yes,yes,no,300534060610380,SVP-B,AOML/USIABP,NABOS,North
2020-11-17T09:00:00Z,1605603600,2020,9,0,322.375,322.375,71.672,-158.518,1014.2,-1.15,-999.0,yes,yes,no,300534060610380,SVP-B,AOML/USIABP,NABOS,North
2020-11-17T10:00:02Z,1605607203,2020,10,0,322.4167,322.4167,71.672,-158.513,1015.0,-1.16,-999.0,yes,yes,no,300534060610380,SVP-B,AOML/USIABP,NABOS,North
2020-11-17T10:59:57Z,1605610797,2020,11,0,322.4583,322.4583,71.673,-158.509,1015.3,-1.14,-999.0,yes,yes,no,300534060610380,SVP-B,AOML/USIABP,NABOS,North
2020-11-17T12:00:00Z,1605614400,2020,12,0,322.5,322.5,71.674,-158.505,1015.4,-1.1,-999.0,yes,yes,no,300534060610380,SVP-B,AOML/USIABP,NABOS,North
2020-11-17T13:00:02Z,1605618003,2020,13,0,322.5417,322.5417,71.676,-158.501,1014.9,-1.09,-999.0,yes,yes,no,300534060610380,SVP-B,AOML/USIABP,NABOS,North
2020-11-17T13:59:57Z,1605621597,2020,14,0,322.5833,322.5833,71.677,-158.496,1014.8,-1.09,-999.0,yes,yes,no,300534060610380,SVP-B,AOML/USIABP,NABOS,North
2020-11-17T15:00:00Z,1605625200,2020,15,0,322.625,322.625,71.679,-158.49,1014.7,-1.09,-999.0,yes,yes,no,300534060610380,SVP-B,AOML/USIABP,NABOS,North
2020-11-17T16:00:02Z,1605628803,2020,16,0,322.6667,322.6667,71.68,-158.484,1014.9,-1.21,-999.0,yes,yes,no,300534060610380,SVP-B,AOML/USIABP,NABOS,North
2020-11-17T16:59:57Z,1605632397,2020,17,0,322.7083,322.7083,71.681,-158.476,1014.6,-1.18,-999.0,yes,yes,no,300534060610380,SVP-B,AOML/USIABP,NABOS,North
2020-11-17T18:00:00Z,1605636000,2020,18,0,322.75,322.75,71.681,-158.469,1014.5,-1.15,-999.0,yes,yes,no,300534060610380,SVP-B,AOML/USIABP,NABOS,North
2020-11-17T19:00:02Z,1605639603,2020,19,0,322.7917,322.7917,71.682,-158.461,1014.7,-1.14,-999.0,yes,yes,no,300534060610380,SVP-B,AOML/USIABP,NABOS,North
2020-11-17T19:59:57Z,1605643197,2020,20,0,322.8333,322.8333,71.682,-158.454,1014.6,-1.12,-999.0,yes,yes,no,300534060610380,SVP-B,AOML/USIABP,NABOS,North
2020-11-17T21:00:00Z,1605646800,2020,21,0,322.875,322.875,71.683,-158.447,1014.8,-1.11,-999.0,yes,yes,no,300534060610380,SVP-B,AOML/USIABP,NABOS,North
2020-11-17T22:00:02Z,1605650403,2020,22,0,322.9167,322.9167,71.683,-158.438,1014.6,-1.11,-999.0,yes,yes,no,300534060610380,SVP-B,AOML/USIABP,NABOS,North
2020-11-17T22:59:57Z,1605653997,2020,23,0,322.9583,322.9583,71.682,-158.427,1014.4,-1.11,-999.0,yes,yes,no,300534060610380,SVP-B,AOML/USIABP,NABOS,North
2020-11-18T00:00:00Z,1605657600,2020,0,0,323.0,323.0,71.683,-158.418,1014.1,-1.1,-999.0,yes,yes,no,300534060610380,SVP-B,AOML/USIABP,NABOS,North
2020-11-18T01:00:02Z,1605661203,2020,1,0,323.0417,323.0417,71.684,-158.406,1013.7,-1.11,-999.0,yes,yes,no,300534060610380,SVP-B,AOML/USIABP,NABOS,North
2020-11-18T01:59:57Z,1605664797,2020,2,0,323.0833,323.0833,71.684,-158.393,1013.2,-1.12,-999.0,yes,yes,no,300534060610380,SVP-B,AOML/USIABP,NABOS,North
2020-11-18T03:00:00Z,1605668400,2020,3,0,323.125,323.125,71.684,-158.38,1012.8,-1.12,-999.0,yes,yes,no,300534060610380,SVP-B,AOML/USIABP,NABOS,North
2020-11-18T04:00:02Z,1605672003,2020,4,0,323.1667,323.1667,71.685,-158.364,1012.8,-1.12,-999.0,yes,yes,no,300534060610380,SVP-B,AOML/USIABP,NABOS,North
2020-11-18T04:59:57Z,1605675597,2020,5,0,323.2083,323.2083,71.684,-158.348,1012.4,-1.13,-999.0,yes,yes,no,300534060610380,SVP-B,AOML/USIABP,NABOS,North
2020-11-18T06:00:00Z,1605679200,2020,6,0,323.25,323.25,71.683,-158.332,1012.2,-1.13,-999.0,yes,yes,no,300534060610380,SVP-B,AOML/USIABP,NABOS,North
2020-11-18T07:00:02Z,1605682803,2020,7,0,323.2917,323.2917,71.681,-158.319,1011.7,-1.14,-999.0,yes,yes,no,300534060610380,SVP-B,AOML/USIABP,NABOS,North
2020-11-18T07:59:57Z,1605686397,2020,8,0,323.3333,323.3333,71.678,-158.308,1011.1,-1.15,-999.0,yes,yes,no,300534060610380,SVP-B,AOML/USIABP,NABOS,North
2020-11-18T09:00:00Z,1605690000,2020,9,0,323.375,323.375,71.677,-158.3,1010.8,-1.15,-999.0,yes,yes,no,300534060610380,SVP-B,AOML/USIABP,NABOS,North
2020-11-18T10:00:02Z,1605693603,2020,10,0,323.4167,323.4167,71.675,-158.292,1010.1,-1.15,-999.0,yes,yes,no,300534060610380,SVP-B,AOML/USIABP,NABOS,North
2020-11-18T10:59:57Z,1605697197,2020,11,0,323.4583,323.4583,71.674,-158.285,1009.3,-1.15,-999.0,yes,yes,no,300534060610380,SVP-B,AOML/USIABP,NABOS,North
2020-11-18T12:00:00Z,1605700800,2020,12,0,323.5,323.5,71.673,-158.278,1009.1,-1.16,-999.0,yes,yes,no,300534060610380,SVP-B,AOML/USIABP,NABOS,North
2020-11-18T13:00:02Z,1605704403,2020,13,0,323.5417,323.5417,71.671,-158.269,1008.8,-1.17,-999.0,yes,yes,no,300534060610380,SVP-B,AOML/USIABP,NABOS,North
2020-11-18T13:59:57Z,1605707997,2020,14,0,323.5833,323.5833,71.67,-158.259,1008.5,-1.18,-999.0,yes,yes,no,300534060610380,SVP-B,AOML/USIABP,NABOS,North
2020-11-18T15:00:00Z,1605711600,2020,15,0,323.625,323.625,71.669,-158.247,1008.3,-1.19,-999.0,yes,yes,no,300534060610380,SVP-B,AOML/USIABP,NABOS,North
2020-11-18T16:00:02Z,1605715203,2020,16,0,323.6667,323.6667,71.669,-158.246,1008.3,-1.18,-999.0,yes,yes,no,300534060610380,SVP-B,AOML/USIABP,NABOS,North
2020-11-18T16:59:57Z,1605718797,2020,17,0,323.7083,323.7083,71.663,-158.223,1008.0,-1.19,-999.0,yes,yes,no,300534060610380,SVP-B,AOML/USIABP,NABOS,North
2020-11-18T18:00:00Z,1605722400,2020,18,0,323.75,323.75,71.659,-158.212,1008.5,-1.2,-999.0,yes,yes,no,300534060610380,SVP-B,AOML/USIABP,NABOS,North
2020-11-18T19:00:02Z,1605726003,2020,19,0,323.7917,323.7917,71.655,-158.202,1008.0,-1.22,-999.0,yes,yes,no,300534060610380,SVP-B,AOML/USIABP,NABOS,North
2020-11-18T19:59:57Z,1605729597,2020,20,0,323.8333,323.8333,71.651,-158.195,1008.0,-1.21,-999.0,yes,yes,no,300534060610380,SVP-B,AOML/USIABP,NABOS,North
2020-11-18T21:00:00Z,1605733200,2020,21,0,323.875,323.875,71.647,-158.189,1007.6,-1.21,-999.0,yes,yes,no,300534060610380,SVP-B,AOML/USIABP,NABOS,North